Location: Unspecified
(42.9300°N, 71.1866°W)
Time: 20:33:53
(UTC-04:00)

Cosmos 1674 - Visible Passes

Search period start: 28 July 2014 00:00
Search period end: 07 August 2014 00:00
Orbit: 516 x 543 km, 82.5° (Epoch: 28 July)

Date Brightness Start Highest point End Pass type
(mag) Time Alt. Az. Time Alt. Az. Time Alt. Az.
28 Jul 3.0 04:22:59 10° N 04:26:52 72° E 04:30:41 10° SSE visible
29 Jul 3.1 04:12:19 10° N 04:16:11 66° E 04:19:59 10° SSE visible
30 Jul 3.2 04:01:39 10° N 04:05:30 61° E 04:09:16 10° SSE visible
31 Jul 3.4 03:51:00 10° N 03:54:48 55° E 03:58:33 10° SSE visible
01 Aug 3.5 03:40:20 10° N 03:44:06 51° E 03:47:50 10° SSE visible
02 Aug 3.6 03:29:40 10° N 03:33:24 47° ENE 03:36:36 13° SSE visible
03 Aug 3.8 03:19:00 10° N 03:22:42 43° ENE 03:25:13 18° SE visible
03 Aug 4.7 04:56:34 10° WNW 04:58:16 13° W 04:59:57 10° WSW visible
04 Aug 3.9 03:08:21 10° N 03:12:00 39° ENE 03:13:54 23° SE visible
04 Aug 4.6 04:45:39 10° NW 04:47:36 14° W 04:49:09 11° WSW visible
05 Aug 4.0 02:57:41 10° N 03:01:17 36° ENE 03:02:38 27° ESE visible
05 Aug 4.5 04:34:45 10° NW 04:36:55 15° W 04:37:53 14° WSW visible
06 Aug 4.1 02:47:02 10° N 02:50:33 34° ENE 02:51:26 30° ESE visible
06 Aug 4.4 04:23:53 10° NW 04:26:15 16° W 04:26:41 16° W visible
